Tracking 31027 objects as of 19-Jul-2025
HD Live streaming from Space Station
objects crossing your sky now

ATLAS 5 CENTAUR DEB

Track ATLAS 5 CENTAUR DEB now!


NORAD ID: 52943
Int'l Code: 2022-073D
Perigee: 36,211.4 km
Apogee: 36,284.1 km
Inclination: 2.9 °
Period: 1,459.4 minutes
Semi major axis: 42618 km
RCS: Unknown
Launch date: July 1, 2022
Source: United States (US)
Launch site: AIR FORCE EASTERN TEST RANGE (AFETR)

Note: This is SATELLITE DEBRIS
Your satellite tracking list
FLOCK 3S 1
Track 1 satellite(s)




NASA's NSSDC Master Catalog

Two Line Element Set (TLE):
1 52943U 22073D   25198.90932916 -.00000174  00000-0  00000+0 0  9993
2 52943   2.8861  83.1695 0008528  42.4276 317.4529  0.98673672  8311
Source of the keplerian elements: AFSPC